[[{"header":{"parameterUnit":"m.s-1","parameterCategory":1,"la1":30.2991,"la2":30.254,"lo1":-89.0895,"lo2":-89.0444,"dy":0.0017,"dx":0.0017,"nx":28,"ny":28,"refTime":"2025-01-01T03:00:00:Z","depth":0,"parameterNumber":2,"parameterNumberName":"U-component_of_WINDS"},"data":[0,0,0,0,0,0,0,0,0,0,0,0,0,0,0,0,0,0,0,0,0,0,0,0,0,0,0,0,0,0,0,0,0,0,0,0,0,0,0,0,0,0,0,0,0,0,0,0,0,0,0,0,0,0,0,0,0,0,-4.0574,-4.0574,0,-4.0541,-4.054,-4.054,-4.0402,-4.0399,-4.0396,-4.0393,-4.0361,-4.0363,-4.0365,0,0,0,0,0,0,0,0,0,0,0,0,0,-4.0521,-4.0523,-4.0574,-4.0574,-4.0573,-4.0541,-4.054,-4.054,-4.0403,-4.0399,-4.0395,-4.0391,-4.0361,-4.0363,-4.0366,0,0,0,0,0,0,0,0,0,0,0,0,0,-4.0522,-4.0524,-4.0574,-4.0501,-4.0494,-4.0541,-4.054,-4.054,-4.0404,-4.0399,-4.0394,-4.0389,-4.036,-4.0363,-4.0366,-4.0482,0,0,-4.0376,-4.0377,0,0,0,0,0,0,0,0,-4.0522,-4.0524,-4.0512,-4.0506,-4.0498,-4.0471,-4.051,-4.0521,-4.0405,-4.0438,-4.0393,-4.0387,-4.0402,-4.0401,-4.0405,-4.048,-4.0479,-4.0376,-4.0378,-4.0379,-4.038,0,0,0,0,0,0,0,-4.0522,-4.0525,-4.0561,-4.0512,-4.0504,-4.0471,-4.0465,-4.0512,-4.0447,-4.0435,-4.0425,-4.0422,-4.0397,-4.0403,-4.0404,-4.0479,-4.0376,-4.0379,-4.0381,-4.0382,-4.0648,-4.0653,0,0,0,0,0,0,-4.0532,-4.0526,-4.0562,-4.056,-4.0499,-4.0475,-4.0469,-4.0484,-4.0446,-4.0436,-4.0427,-4.0416,-4.04,-4.04,-4.0402,-4.0536,-4.0379,-4.0382,-4.0384,-4.0643,-4.065,-4.0655,0,0,0,0,0,0,-4.0532,-4.0537,-4.0563,-4.054,-4.0541,-4.0481,-4.0499,-4.0486,-4.0492,-4.044,-4.0428,-4.0444,-4.0396,-4.0398,-4.0463,-4.0533,-4.0384,-4.0387,-4.0637,-4.0645,-4.0652,-4.0804,0,0,0,0,0,0,-4.0531,-4.0537,-4.058,-4.0542,-4.0543,-4.0624,-4.0503,-4.0489,-4.0497,-4.0483,-4.0453,-4.0444,-4.0392,-4.0459,-4.0466,-4.0534,-4.0389,-4.0631,-4.0641,-4.065,-4.0792,-4.0816,-4.0836,0,0,0,0,0,-4.0529,-4.0624,-4.0583,-4.0588,-4.0594,-4.0628,-4.0629,-4.0567,-4.0504,-4.0546,-4.0514,-4.0445,-4.0524,-4.0467,-4.0474,-4.0544,-4.0626,-4.0638,-4.0649,-4.0783,-4.0811,-4.0835,0,0,0,0,0,0,-4.0672,-4.0618,-4.0571,-4.0656,-4.0648,-4.0605,-4.0657,-4.0599,-4.0609,-4.0596,-4.0519,-4.0514,-4.0591,-4.0574,-4.0511,-4.0655,-4.0564,-4.0577,-4.0663,-4.069,-4.0711,-4.0713,-4.0392,0,0,0,0,0,-4.0713,-4.0745,-4.0696,-4.0776,-4.0774,-4.0717,-4.0729,-4.0683,-4.0671,-4.0667,-4.0639,-4.0631,-4.0654,-4.0671,-4.069,-4.079,-4.0782,-4.0842,-4.0864,-4.0882,-4.0894,-4.0947,-4.0973,-4.0693,-4.0693,-4.0693,0,0,-4.0799,-4.0773,-4.0797,-4.0804,-4.0792,-4.0827,-4.0715,-4.0756,-4.0782,-4.0673,-4.0733,-4.0713,-4.07,-4.0784,-4.0819,-4.0772,-4.097,-4.0897,-4.0911,-4.0914,-4.0962,-4.0988,-4.1012,-4.0701,-4.07,-4.0698,0,0,-4.0972,-4.0956,-4.1021,-4.1012,-4.0995,-4.0957,-4.0973,-4.0939,-4.0921,-4.0981,-4.09,-4.0931,-4.0972,-4.0966,-4.0968,-4.1143,-4.1081,-4.1152,-4.1265,-4.1317,-4.1339,-4.1359,-4.1421,-4.1445,-4.1164,-4.1165,-4.1165,0,-4.1081,-4.1129,-4.1062,-4.1109,-4.1115,-4.1019,-4.1085,-4.1079,-4.107,-4.1077,-4.1024,-4.1075,-4.1059,-4.1141,-4.1184,-4.1189,-4.1206,-4.1154,-4.1342,-4.136,-4.1377,-4.1436,-4.146,-4.1173,-4.1172,-4.1171,-4.1171,0,-4.1264,-4.13,-4.1354,-4.1348,-4.136,-4.1417,-4.1359,-4.1379,-4.1333,-4.1301,-4.1363,-4.1341,-4.1354,-4.137,-4.1325,-4.1446,-4.1417,-4.1355,-4.1261,-4.1414,-4.1468,-4.149,-4.1186,-4.1183,-4.118,-4.1178,0,0,-4.1524,-4.1481,-4.1502,-4.1499,-4.1475,-4.1501,-4.1555,-4.1567,-4.1586,-4.1584,-4.1628,-4.1666,-4.1608,-4.1611,-4.1565,-4.1611,-4.1752,-4.1542,-4.1541,-4.1582,-4.1885,-4.1932,-4.1959,-4.1711,-4.1715,-4.1718,-4.1886,0,-4.1689,-4.1776,-4.1719,-4.1816,-4.1848,-4.1759,-4.1805,-4.1797,-4.1769,-4.1794,-4.1763,-4.1792,-4.1713,-4.1714,-4.1756,-4.1726,-4.1812,-4.1713,-4.1751,-4.1753,-4.1756,-4.1987,-4.2037,-4.2196,-4.1907,-4.1911,-4.1913,0,-4.1893,-4.19,-4.2001,-4.1971,-4.1983,-4.2026,-4.2033,-4.2058,-4.2047,-4.2023,-4.2029,-4.1971,-4.2023,-4.1932,-4.2003,-4.1937,-4.195,-4.1938,-4.1942,-4.1942,-4.1842,-4.1994,-4.2246,-4.227,-4.1946,-4.1943,-4.1941,0,-4.2073,-4.2107,-4.2172,-4.2172,-4.214,-4.2172,-4.216,-4.2145,-4.2156,-4.2164,-4.2171,-4.2185,-4.2192,-4.2205,-4.2153,-4.2092,-4.2231,-4.2136,-4.2214,-4.2216,-4.2246,-4.2245,-4.2503,-4.2256,-4.2256,-4.2255,-4.2255,0,-4.2263,-4.2328,-4.2252,-4.2292,-4.2363,-4.2297,-4.2369,-4.2348,-4.2336,-4.2371,-4.2295,-4.233,-4.226,-4.2288,-4.2249,-4.2314,-4.2318,-4.2301,-4.229,-4.2308,-4.231,-4.2314,-4.2301,-4.2262,-4.226,-4.2259,-4.2258,0,-4.2474,-4.2426,-4.2491,-4.2456,-4.2449,-4.2503,-4.2473,-4.2509,-4.2477,-4.2523,-4.253,-4.248,-4.251,-4.246,-4.2484,-4.2457,-4.2548,-4.252,-4.2551,-4.2543,-4.2624,-4.2617,-4.2893,-4.2926,-4.2659,-4.2662,-4.2664,0,-4.2598,-4.2646,-4.2617,-4.2634,-4.2627,-4.2657,-4.2669,-4.2607,-4.2622,-4.2615,-4.2653,-4.2676,-4.2691,-4.2743,-4.2709,-4.2728,-4.2699,-4.2795,-4.2701,-4.2718,-4.27,-4.2698,-4.2703,-4.2814,-4.2817,-4.282,-4.2822,0,-4.2823,-4.2798,-4.2817,-4.283,-4.2846,-4.2853,-4.2854,-4.2873,-4.2808,-4.283,-4.2859,-4.2871,-4.2896,-4.292,-4.2931,-4.2919,-4.2861,-4.2852,-4.2871,-4.2889,-4.2905,-4.2897,-4.2603,-4.2845,-4.2843,-4.2841,-4.284,-4.2839,-4.2994,-4.3033,-4.3018,-4.3043,-4.3038,-4.3042,-4.3074,-4.3047,-4.307,-4.3085,-4.3048,-4.3086,-4.3076,-4.3084,-4.308,-4.311,-4.3068,-4.3096,-4.3102,-4.311,-4.3123,-4.2902,-4.3112,-4.3111,-4.3111,-4.311,-4.311,0,-4.3214,-4.3201,-4.3225,-4.323,-4.325,-4.3193,-4.3192,-4.3213,-4.3248,-4.3244,-4.326,-4.3295,-4.3319,-4.3289,-4.3308,-4.3338,-4.3312,-4.3345,-4.3342,-4.3341,-4.3159,-4.3141,-4.3366,-4.3366,-4.3366,-4.3366,-4.3366,-4.3366,-4.3331,-4.3395,-4.3368,-4.3429,-4.3415,-4.3452,-4.3457,-4.346,-4.3456,-4.3499,-4.3518,-4.3498,-4.3484,-4.3502,-4.3522,-4.3512,-4.3523,-4.3566,-4.3547,-4.3378,-4.3353,-4.3329,-4.3311,-4.3569,-4.3569,-4.3726,-4.3727,-4.3728]},{"header":{"parameterUnit":"m.s-1","parameterCategory":1,"la1":30.2991,"la2":30.254,"lo1":-89.0895,"lo2":-89.0444,"dy":0.0017,"dx":0.0017,"nx":28,"ny":28,"refTime":"2025-01-01T03:00:00:Z","depth":0,"parameterNumber":3,"parameterNumberName":"V-component_of_WINDS"},"data":[0,0,0,0,0,0,0,0,0,0,0,0,0,0,0,0,0,0,0,0,0,0,0,0,0,0,0,0,0,0,0,0,0,0,0,0,0,0,0,0,0,0,0,0,0,0,0,0,0,0,0,0,0,0,0,0,0,0,0.7601,0.7601,0,0.7555,0.7555,0.7554,0.757,0.7571,0.7572,0.7573,0.7521,0.7518,0.7516,0,0,0,0,0,0,0,0,0,0,0,0,0,0.77,0.7698,0.7601,0.7601,0.76,0.7555,0.7555,0.7554,0.7569,0.7571,0.7572,0.7573,0.7521,0.7519,0.7516,0,0,0,0,0,0,0,0,0,0,0,0,0,0.7656,0.7698,0.7602,0.7603,0.7602,0.7555,0.7555,0.7554,0.7569,0.7571,0.7572,0.7574,0.7522,0.7519,0.7516,0.7463,0,0,0.7505,0.7503,0,0,0,0,0,0,0,0,0.7658,0.7652,0.7603,0.7603,0.7602,0.757,0.7571,0.7523,0.7569,0.7582,0.7573,0.7574,0.7536,0.7531,0.7519,0.7461,0.7459,0.7505,0.7502,0.7501,0.75,0,0,0,0,0,0,0,0.7661,0.7654,0.7583,0.7602,0.7602,0.7605,0.76,0.7562,0.755,0.7581,0.7582,0.7576,0.7535,0.7522,0.7518,0.7458,0.7505,0.7502,0.7499,0.7498,0.7356,0.7354,0,0,0,0,0,0,0.7665,0.7657,0.7585,0.7582,0.7635,0.7602,0.7596,0.7579,0.7551,0.7548,0.7575,0.7577,0.7527,0.7522,0.7516,0.7453,0.7501,0.7498,0.7496,0.7358,0.7356,0.7354,0,0,0,0,0,0,0.7667,0.7659,0.7586,0.762,0.7611,0.7598,0.7578,0.7577,0.7564,0.7547,0.7544,0.7564,0.7528,0.7521,0.7477,0.7452,0.7496,0.7493,0.736,0.7357,0.7355,0.7328,0,0,0,0,0,0,0.767,0.7659,0.764,0.7619,0.7609,0.7549,0.7577,0.7575,0.7558,0.756,0.7535,0.7533,0.7529,0.7482,0.7473,0.7448,0.749,0.7362,0.7358,0.7355,0.7331,0.7325,0.7319,0,0,0,0,0,0.7674,0.7633,0.7639,0.763,0.7584,0.7547,0.7541,0.7539,0.7556,0.7536,0.7526,0.7533,0.7456,0.7477,0.7468,0.7441,0.7363,0.7359,0.7356,0.7333,0.7326,0.7319,0,0,0,0,0,0,0.7649,0.763,0.7636,0.7588,0.7569,0.755,0.7525,0.7531,0.7506,0.7509,0.7506,0.7501,0.7456,0.7444,0.7468,0.7389,0.7412,0.7406,0.7398,0.7391,0.7386,0.7389,0.7487,0,0,0,0,0,0.7638,0.7611,0.7596,0.7554,0.7545,0.7537,0.752,0.7521,0.75,0.7492,0.7478,0.7457,0.7429,0.7409,0.7382,0.733,0.7324,0.7307,0.7301,0.7296,0.7291,0.7263,0.7255,0.7341,0.7341,0.7341,0,0,0.7615,0.7601,0.7584,0.7549,0.7535,0.7506,0.7529,0.7497,0.7475,0.7487,0.7445,0.7434,0.7411,0.7363,0.7341,0.7351,0.7266,0.7292,0.7288,0.7285,0.7258,0.725,0.7243,0.7339,0.7339,0.734,0,0,0.7558,0.7545,0.751,0.7496,0.7474,0.747,0.7461,0.7441,0.7435,0.7394,0.7402,0.7375,0.7326,0.7309,0.7294,0.7233,0.7239,0.7224,0.7194,0.7166,0.716,0.7153,0.7131,0.7124,0.7219,0.7219,0.7219,0,0.7531,0.7489,0.749,0.7458,0.7442,0.7454,0.7418,0.7403,0.7374,0.7362,0.7375,0.7315,0.7299,0.7248,0.7233,0.7221,0.7211,0.7226,0.7161,0.7155,0.7149,0.7128,0.712,0.7217,0.7218,0.7218,0.7218,0,0.7457,0.7428,0.7401,0.7375,0.7356,0.7322,0.7318,0.7299,0.7302,0.7295,0.7253,0.7236,0.7205,0.7194,0.7195,0.7142,0.715,0.7162,0.7184,0.7139,0.7119,0.7111,0.7215,0.7215,0.7216,0.7216,0,0,0.738,0.7357,0.7347,0.7336,0.7314,0.7291,0.7258,0.723,0.7214,0.7194,0.7165,0.7124,0.7136,0.7119,0.7119,0.7095,0.7048,0.711,0.7109,0.7099,0.6989,0.6979,0.697,0.7053,0.7052,0.705,0.6991,0,0.7321,0.7264,0.7265,0.7212,0.7185,0.7197,0.7168,0.7151,0.7145,0.712,0.7112,0.7083,0.7101,0.7091,0.7068,0.7059,0.7026,0.7063,0.7025,0.7024,0.703,0.696,0.6949,0.6893,0.6983,0.6982,0.6981,0,0.7244,0.7223,0.7167,0.7152,0.714,0.7114,0.709,0.7066,0.7048,0.7045,0.7027,0.7032,0.6997,0.7022,0.6974,0.7,0.6985,0.6978,0.6976,0.6971,0.6998,0.6952,0.6876,0.6867,0.6969,0.697,0.697,0,0.7193,0.7151,0.7113,0.7103,0.7083,0.7065,0.7056,0.7039,0.7023,0.7001,0.699,0.6964,0.695,0.6929,0.6926,0.6945,0.6878,0.6902,0.6873,0.6873,0.6857,0.6858,0.6776,0.6849,0.6849,0.685,0.685,0,0.7126,0.7091,0.709,0.7066,0.7028,0.703,0.6992,0.6984,0.697,0.6944,0.6952,0.6928,0.6926,0.69,0.6898,0.6858,0.6852,0.6848,0.6847,0.6846,0.6847,0.6835,0.6838,0.6847,0.6848,0.6848,0.6849,0,0.7062,0.706,0.7019,0.7005,0.7001,0.6973,0.6961,0.6938,0.6933,0.6901,0.6893,0.6885,0.6856,0.6852,0.6817,0.6815,0.6768,0.6772,0.6774,0.6774,0.6745,0.6748,0.6652,0.664,0.6722,0.6721,0.6721,0,0.7019,0.6993,0.6977,0.6961,0.6952,0.6926,0.691,0.6912,0.6895,0.6873,0.6852,0.6825,0.6802,0.6755,0.6745,0.6719,0.6721,0.669,0.6717,0.6718,0.672,0.6721,0.6719,0.6684,0.6683,0.6682,0.6682,0,0.6942,0.6943,0.6921,0.6898,0.688,0.6862,0.6845,0.6831,0.6831,0.6811,0.6782,0.6765,0.6731,0.6703,0.6677,0.6667,0.6673,0.6674,0.6666,0.6664,0.6666,0.6664,0.6759,0.6675,0.6676,0.6677,0.6677,0.6677,0.6886,0.6864,0.685,0.6825,0.6813,0.6798,0.6776,0.677,0.6747,0.672,0.6722,0.6691,0.6674,0.664,0.6628,0.6603,0.6613,0.6601,0.6598,0.6594,0.6591,0.6672,0.6598,0.6598,0.6598,0.6599,0.6599,0,0.681,0.6802,0.6779,0.6757,0.6737,0.6748,0.6731,0.6713,0.6686,0.667,0.6649,0.6616,0.659,0.6579,0.6553,0.6535,0.6537,0.6527,0.6528,0.6526,0.6584,0.6594,0.6526,0.6526,0.6526,0.6526,0.6526,0.6526,0.6767,0.6731,0.673,0.6688,0.668,0.665,0.6639,0.6625,0.6613,0.6577,0.6555,0.655,0.6536,0.6509,0.6485,0.6483,0.6472,0.6461,0.646,0.6514,0.6521,0.6528,0.6537,0.6459,0.6459,0.6403,0.6403,0.6402]}]]